Location: ????????
(54.6123°N, 39.2099°E)
Time: 18:09:36
(UTC+00:00)

H-2A R/B - Pass Details

Date: 19 May 2025
Orbit: 492 x 574 km, 98.2° (Epoch: 20 June)

Event Time Altitude Azimuth Distance (km) Brightness Sun altitude
Exits shadow 22:52:24 19° 221° (SW) 1,334 3.7 -12.8°
Maximum altitude 22:54:17 28° 264° (W) 1,046 3.5 -12.7°
Drops below altitude 10° 22:57:41 10° 325° (NW) 1,803 5.4 -12.5°
Sets 23:00:00 0° 337° (NNW) 2,683 6.5 -12.4°
